Location: Unspecified
(0.0000°N, 0.0000°E)
Time: 04:41:09
(UTC+00:00)

Courier 1B Rocket - Pass Details

Date: 15 April 2021
Orbit: 920 x 1202 km, 28.3° (Epoch: 16 May)

Event Time Altitude Azimuth Distance (km) Brightness Sun altitude
Exits shadow 03:03:17 20° 19° (NNE) 2,414 7.2 -43.4°
Maximum altitude 03:03:44 20° 24° (NNE) 2,407 7.2 -43.3°
Drops below altitude 10° 03:09:05 10° 69° (ENE) 3,053 8.2 -42.0°
Sets 03:12:42 0° 85° (E) 3,973 9.0 -41.1°
